TimePDT,TemperatureF,Dew PointF,Humidity,Sea Level PressureIn,VisibilityMPH,Wind Direction,Wind SpeedMPH,Gust SpeedMPH,PrecipitationIn,Events,Conditions,WindDirDegrees,DateUTC
12:53 AM,57.9,54.0,87,29.99,10.0,SSW,5.8,-,N/A,,Mostly Cloudy,210,2013-07-22 07:53:00
1:01 AM,57.2,53.6,88,29.97,10.0,SSW,6.9,-,N/A,,Scattered Clouds,200,2013-07-22 08:01:00
1:53 AM,57.9,54.0,87,30.00,3.0,SW,6.9,-,N/A,,Overcast,220,2013-07-22 08:53:00
2:35 AM,57.2,53.6,88,29.99,1.0,SW,8.1,-,N/A,,Overcast,220,2013-07-22 09:35:00
2:47 AM,57.2,53.6,88,29.99,0.8,SSW,5.8,-,N/A,,Overcast,210,2013-07-22 09:47:00
2:53 AM,57.0,54.0,89,30.01,0.8,SW,6.9,-,N/A,,Overcast,220,2013-07-22 09:53:00
3:53 AM,57.0,53.1,87,30.02,1.0,SSW,6.9,-,N/A,,Overcast,200,2013-07-22 10:53:00
4:53 AM,57.0,53.1,87,30.03,1.0,SW,6.9,-,N/A,,Overcast,220,2013-07-22 11:53:00
5:53 AM,57.0,54.0,89,30.04,0.5,West,4.6,-,N/A,Fog,Fog,260,2013-07-22 12:53:00
6:53 AM,55.9,54.0,93,30.05,0.5,WSW,4.6,-,N/A,Fog,Fog,250,2013-07-22 13:53:00
7:53 AM,57.0,55.0,93,30.06,0.8,Calm,Calm,-,N/A,,Overcast,0,2013-07-22 14:53:00
8:53 AM,57.9,55.0,90,30.08,1.5,South,11.5,25.3,N/A,,Overcast,170,2013-07-22 15:53:00
9:22 AM,60.8,53.6,77,30.07,10.0,SSW,8.1,-,N/A,,Overcast,200,2013-07-22 16:22:00
9:53 AM,61.0,53.1,75,30.09,10.0,SW,10.4,-,N/A,,Overcast,220,2013-07-22 16:53:00
10:25 AM,62.6,53.6,72,30.07,10.0,SSW,8.1,-,N/A,,Overcast,210,2013-07-22 17:25:00
10:53 AM,64.0,53.1,67,30.10,10.0,SSW,6.9,-,N/A,,Overcast,210,2013-07-22 17:53:00
11:46 AM,66.2,53.6,64,30.09,10.0,Variable,5.8,-,N/A,,Mostly Cloudy,0,2013-07-22 18:46:00
11:53 AM,66.0,54.0,65,30.10,10.0,SSW,5.8,-,N/A,,Mostly Cloudy,210,2013-07-22 18:53:00
12:29 PM,66.2,53.6,64,30.08,10.0,Variable,4.6,-,N/A,,Scattered Clouds,0,2013-07-22 19:29:00
12:53 PM,69.1,54.0,58,30.10,10.0,WSW,4.6,-,N/A,,Scattered Clouds,250,2013-07-22 19:53:00
1:53 PM,72.0,55.0,55,30.09,10.0,Variable,5.8,-,N/A,,Partly Cloudy,0,2013-07-22 20:53:00
2:53 PM,73.9,55.0,52,30.08,10.0,Variable,4.6,-,N/A,,Clear,0,2013-07-22 21:53:00
3:53 PM,75.0,55.0,50,30.07,10.0,Calm,Calm,-,N/A,,Clear,0,2013-07-22 22:53:00
4:53 PM,77.0,55.9,48,30.06,10.0,Variable,4.6,-,N/A,,Clear,0,2013-07-22 23:53:00
5:53 PM,78.1,55.9,46,30.04,10.0,West,5.8,-,N/A,,Clear,280,2013-07-23 00:53:00
6:53 PM,78.1,55.9,46,30.04,10.0,West,5.8,-,N/A,,Clear,270,2013-07-23 01:53:00
7:53 PM,75.9,55.9,50,30.04,10.0,West,5.8,-,N/A,,Clear,280,2013-07-23 02:53:00
8:53 PM,73.0,57.0,57,30.04,10.0,West,5.8,-,N/A,,Clear,270,2013-07-23 03:53:00
9:53 PM,69.1,55.9,63,30.05,10.0,WNW,3.5,-,N/A,,Clear,290,2013-07-23 04:53:00
10:53 PM,68.0,55.9,65,30.05,10.0,NW,3.5,-,N/A,,Clear,310,2013-07-23 05:53:00
11:53 PM,66.0,55.9,70,30.06,10.0,NNW,4.6,-,N/A,,Clear,340,2013-07-23 06:53:00